Wind_Speed
11 11 9 10 12 11 13 12 12 12 12 13 14 17 18 16 14 14 16 18 19 20 20 20 21 25 29 29 32 34 34 35 33 30 28 25 22 19 18 17 16 16 16
12 12 11 12 10 13 14 12 13 12 12 13 12 13 16 16 16 15 15 17 17 17 17 16 19 21 22 26 30 36 38 38 34 32 29 27 24 21 19 19 18 17 17
11 10 9 12 11 13 13 10 13 12 12 13 13 14 14 14 14 13 12 10 12 13 11 12 10 14 12 10 13 15 22 8 33 34 32 23 20 18 18 18 18 19 19
9 12 9 13 11 12 12 11 12 12 12 13 14 13 11 15 10 7 7 8 9 9 10 10 9 9 9 14 13 13 17 20 21 34 12 13 9 10 8 11 19 19 20
7 9 10 10 10 10 12 12 10 11 13 16 14 12 11 10 10 10 11 10 10 11 11 11 13 12 11 12 19 21 18 12 13 10 21 20 14 5 8 12 12 13 12
5 4 6 8 8 10 12 13 11 10 16 18 14 15 16 13 13 15 13 12 13 12 12 10 8 8 11 13 15 19 21 20 14 6 3 6 12 11 8 9 8 13 16
5 4 5 7 7 10 12 13 11 12 17 20 13 12 12 17 14 13 15 14 13 14 14 14 12 9 11 14 15 15 19 17 13 13 8 6 6 9 10 8 7 2 3
5 5 6 7 7 8 8 10 12 11 10 17 10 4 3 3 14 10 13 17 11 13 15 14 12 11 12 13 14 14 16 16 14 13 11 8 9 10 9 5 4 6 6
4 4 5 6 6 6 8 10 11 12 11 10 13 7 3 2 7 3 6 9 13 14 15 12 9 9 10 11 13 16 17 16 15 14 12 11 11 13 11 7 8 7 7
2 3 4 4 5 5 6 7 8 10 9 12 4 10 5 2 1 4 4 8 13 14 10 9 3 6 9 12 13 16 15 15 14 15 13 13 13 15 15 12 11 12 9
4 4 4 3 3 4 5 6 7 8 7 7 7 6 5 6 4 2 4 6 21 19 10 10 2 3 8 12 15 17 14 13 13 14 10 9 10 11 13 11 9 11 13
6 5 5 4 4 4 4 4 4 4 5 5 5 4 4 1 2 2 2 5 9 6 11 5 5 7 10 12 15 17 16 13 12 13 11 11 11 13 12 11 12 13 14
10 9 7 6 5 5 4 4 3 3 3 3 3 3 2 1 3 4 5 5 3 7 4 8 11 11 13 13 15 17 17 15 13 13 11 11 12 12 13 11 12 12 12
11 10 9 8 7 7 6 5 4 4 4 4 4 4 3 3 4 5 4 4 3 3 4 2 6 12 16 19 20 18 18 17 15 15 12 10 11 13 15 12 11 13 14
14 13 12 11 10 9 8 7 6 6 6 6 6 6 6 5 6 6 6 6 3 3 2 3 2 9 24 23 19 19 18 17 16 15 13 14 15 16 16 14 13 15 16
17 17 15 14 12 11 10 9 8 7 8 8 7 8 9 9 9 8 7 8 8 8 3 3 8 25 21 20 17 17 19 18 17 12 14 13 13 18 14 11 12 15 16
20 20 19 17 16 15 13 12 11 10 10 10 9 10 11 10 11 10 9 10 11 12 10 18 16 22 22 19 17 19 16 17 14 12 17 13 17 18 14 12 13 17 16
24 24 23 22 20 18 17 16 15 14 14 14 14 13 13 12 13 12 12 13 14 13 15 18 20 20 21 20 22 18 20 16 10 17 11 15 23 17 13 14 19 19 17
28 27 28 28 26 23 21 19 18 17 17 17 16 16 16 14 15 15 15 14 14 14 14 16 19 19 22 20 18 19 17 17 15 13 18 21 13 13 13 19 23 19 19
32 31 32 32 29 25 23 22 21 21 20 20 18 18 17 17 18 17 16 16 16 16 16 15 18 21 19 18 17 17 18 19 24 27 24 12 13 14 23 20 17 19 19
34 34 34 34 32 28 27 26 25 24 22 21 19 18 19 19 18 18 18 17 17 18 17 17 18 18 16 15 15 18 18 22 24 21 16 11 22 27 25 21 18 20 18
36 35 36 37 35 33 32 29 27 26 25 23 21 20 20 20 20 17 17 17 16 16 18 18 18 15 17 17 18 17 18 16 7 13 11 25 22 24 25 21 20 20 23
35 37 37 38 38 36 34 32 29 27 26 25 24 22 20 20 19 19 20 17 18 18 18 19 20 19 18 21 19 19 18 19 17 23 20 22 21 24 24 23 22 22 22
34 35 38 38 39 39 36 33 30 27 28 26 24 22 21 20 21 20 20 21 21 20 20 20 23 24 24 24 23 22 21 21 20 20 18 15 23 24 21 27 30 23 20
28 32 35 36 38 39 38 34 29 28 29 27 24 25 23 22 22 20 20 21 22 22 20 20 21 23 22 20 19 20 19 19 13 16 19 18 8 22 25 25 13 14 15
26 28 32 35 35 36 34 31 27 27 27 27 27 28 24 21 22 19 20 22 24 25 23 23 24 23 21 22 20 20 21 17 13 9 6 8 17 14 8 14 14 20 24
Wind_Direction
7 3 15 23 17 2 3 356 358 359 352 341 326 323 315 321 323 328 314 313 312 311 303 294 286 277 270 266 266 258 248 244 239 236 233 233 235 236 236 238 240 238 238
16 21 19 31 19 22 15 360 0 358 1 349 347 338 331 326 319 322 325 328 327 330 322 308 297 287 285 276 285 265 258 245 245 242 237 233 234 237 239 242 243 241 240
19 14 2 16 20 23 16 20 13 3 359 359 343 339 339 345 342 340 336 343 341 335 355 352 354 5 346 329 325 309 358 338 248 241 229 225 231 239 242 244 251 257 250
21 17 28 22 18 19 8 6 5 359 355 342 330 334 352 349 3 13 354 360 8 10 17 21 8 11 34 25 22 15 7 13 25 11 19 141 206 217 236 251 246 254 245
28 39 36 22 29 19 22 22 26 16 2 353 352 357 3 65 67 54 53 49 45 42 40 34 30 28 35 29 33 34 42 9 348 359 343 352 359 318 267 265 270 269 258
37 40 33 37 31 26 27 31 31 42 23 4 1 31 85 81 71 59 51 48 41 34 27 19 31 35 6 2 2 17 23 50 23 28 306 318 293 310 337 342 281 249 252
37 55 43 38 38 31 28 25 28 33 24 17 18 44 77 78 56 58 61 51 41 35 21 22 21 22 11 2 4 360 11 23 22 23 40 22 348 345 313 298 309 317 54
51 46 42 42 36 29 27 27 28 35 36 29 27 3 5 323 25 51 63 51 57 42 24 16 19 31 30 31 25 23 23 18 14 4 355 338 340 340 299 335 345 356 320
37 38 34 30 28 20 23 24 28 32 26 43 45 45 20 359 338 3 61 44 36 31 25 14 26 31 24 21 15 17 25 20 13 9 3 357 358 6 20 357 355 354 359
2 6 13 15 11 10 17 29 33 39 38 33 30 30 34 15 322 322 315 334 345 348 5 7 4 27 22 18 23 20 22 19 14 7 6 3 356 354 350 344 336 354 359
305 325 339 342 345 355 14 24 35 42 46 51 45 20 24 17 51 336 286 313 328 340 346 347 201 36 20 15 12 17 22 13 4 4 357 353 357 346 344 349 348 336 346
272 291 306 307 316 327 351 12 23 30 40 45 49 51 60 30 350 351 314 321 312 331 359 53 142 57 37 20 9 2 8 7 357 354 353 349 346 346 353 358 351 345 337
251 268 280 280 288 308 320 329 338 354 356 5 6 15 8 326 312 312 301 310 311 320 342 81 89 52 32 23 8 352 351 357 355 350 348 343 343 343 351 345 346 339 336
255 263 272 278 286 293 299 302 301 301 308 309 315 313 314 306 302 311 297 313 315 301 292 140 96 30 6 354 348 345 343 345 347 345 343 340 340 344 344 339 334 337 337
251 258 263 265 269 274 278 283 284 280 288 297 297 301 301 301 293 293 282 285 246 303 295 265 284 326 338 340 342 339 341 340 339 340 342 339 341 341 338 335 327 330 332
250 250 255 262 263 265 266 267 270 273 272 281 281 283 289 292 288 288 273 274 261 250 258 268 291 312 323 332 334 335 335 334 339 340 340 336 334 336 326 319 319 325 326
252 251 252 252 252 254 257 259 263 266 267 271 270 265 267 269 278 274 270 269 266 260 262 285 291 305 318 328 324 325 328 330 332 335 332 328 331 328 325 321 324 325 323
256 255 256 255 254 251 250 251 254 254 255 253 260 259 259 262 265 262 265 264 262 265 269 281 296 305 315 327 322 323 328 325 318 328 325 325 326 325 323 322 326 327 324
255 252 251 252 253 251 250 250 253 256 254 255 256 255 259 258 259 261 262 263 262 272 275 282 292 302 312 323 322 324 328 327 324 322 319 317 317 319 321 321 320 319 317
256 254 252 255 256 255 253 252 251 254 254 254 255 254 255 255 263 261 259 258 260 266 275 283 289 299 307 315 311 319 320 316 318 319 321 319 313 313 315 316 310 313 314
258 257 256 254 256 253 252 249 250 253 255 257 256 257 260 264 264 267 264 266 268 273 275 279 286 293 293 299 297 312 303 313 315 315 313 319 311 318 320 321 312 310 309
255 254 251 250 250 252 254 252 253 254 256 253 253 257 259 261 263 255 255 263 264 266 266 269 273 268 278 285 298 294 297 302 311 319 312 304 312 309 314 313 310 303 306
258 253 252 251 249 254 256 255 252 253 254 253 256 257 257 257 257 260 266 261 259 265 265 276 278 280 280 290 291 289 285 288 283 294 299 296 305 302 310 309 304 303 301
263 259 254 253 251 255 257 254 252 247 251 258 259 261 261 263 261 266 265 264 264 263 265 268 275 279 285 289 284 280 287 287 288 288 298 288 305 299 309 304 304 298 302
275 267 260 256 253 258 259 256 250 244 247 255 264 262 260 259 259 259 255 260 267 269 270 269 274 277 278 282 288 294 295 289 286 294 300 292 295 309 304 297 294 295 297
281 277 266 257 258 261 262 258 243 239 246 255 270 261 257 256 260 253 252 256 260 266 275 281 283 280 276 279 284 287 283 271 279 296 278 271 302 315 305 283 272 287 298
Height
826 824 823 822 821 819 818 816 814 813 812 811 810 809 808 807 807 806 806 805 804 801 800 799 798 798 797 796 795 795 793 791 790 790 792 794 797 800 803 805 806 808 810
827 824 823 822 821 819 818 816 814 813 811 809 808 807 806 805 804 804 804 803 801 799 798 796 795 793 792 791 788 790 789 787 788 789 789 789 792 794 798 800 802 804 805
827 825 824 822 821 819 817 815 814 812 810 809 807 806 805 804 803 802 801 801 800 799 798 796 795 792 789 788 785 780 780 758 779 778 779 783 788 791 793 795 797 799 801
828 826 825 823 821 819 818 816 814 812 810 809 807 805 804 803 801 801 800 800 800 799 798 796 795 792 791 789 787 785 781 785 772 769 763 766 782 786 787 789 791 793 795
829 827 826 824 822 821 819 817 814 813 812 809 805 804 803 801 801 801 801 800 800 799 798 797 796 793 790 788 786 786 783 783 780 776 780 776 779 779 782 783 785 787 789
829 828 827 825 824 822 820 818 816 814 812 808 805 804 804 804 803 802 802 803 802 801 800 798 796 794 792 789 785 782 781 777 785 778 785 783 786 782 782 780 784 782 785
829 828 827 826 825 823 822 819 817 814 811 807 804 804 805 805 804 804 805 805 804 803 801 800 798 796 794 792 789 785 784 780 786 789 785 789 786 784 781 784 785 783 783
829 828 827 826 825 824 823 821 818 815 814 812 811 810 810 807 806 808 808 807 807 806 804 802 799 797 796 795 793 791 790 791 791 790 789 786 784 780 788 783 784 783 782
829 828 827 826 825 825 824 822 819 816 815 815 814 814 815 816 812 809 808 807 808 807 805 803 801 799 798 796 795 794 793 791 790 790 788 787 785 784 783 782 784 781 780
828 827 826 825 825 825 823 821 819 818 817 816 816 816 817 818 818 815 808 806 806 806 805 803 800 799 798 798 797 795 794 793 792 790 786 785 784 785 784 783 782 779 778
827 826 825 825 824 824 822 821 819 818 817 817 816 816 815 816 817 817 813 807 805 805 804 802 800 799 799 798 798 798 796 795 793 793 793 791 789 793 788 783 780 777 776
826 826 825 824 823 822 821 820 819 818 817 816 816 816 816 817 818 818 816 810 808 804 803 801 802 801 800 799 798 797 798 797 795 793 790 789 789 788 785 778 776 775 775
824 824 824 823 822 821 820 819 819 818 817 816 816 816 816 817 818 817 817 814 811 805 803 804 803 802 801 800 798 796 794 794 793 791 789 787 785 784 780 777 778 779 777
823 823 822 821 821 820 820 819 818 817 817 816 816 815 815 815 815 815 815 815 812 808 803 802 801 800 800 799 797 795 793 790 790 788 787 786 784 779 775 775 776 776 773
819 819 819 818 818 817 817 817 816 815 815 815 815 814 814 814 814 813 814 814 813 812 807 800 799 797 797 796 795 793 790 789 787 785 784 782 779 776 774 771 772 773 771
816 815 815 815 815 815 814 813 812 812 811 811 811 811 811 811 811 810 810 811 811 810 807 799 798 797 796 794 793 792 790 787 785 783 781 780 779 777 775 775 773 770 766
811 811 811 810 810 810 810 809 809 808 808 808 808 806 806 806 805 805 805 805 805 806 803 797 796 795 794 791 789 788 786 785 783 781 779 778 776 774 772 771 769 766 764
807 807 807 807 806 805 804 804 803 803 803 802 803 803 802 802 801 801 801 800 799 800 799 795 793 792 791 789 787 784 783 780 779 778 777 774 771 769 768 766 764 760 758
799 800 801 800 799 800 800 799 799 799 799 798 798 798 798 798 798 798 798 797 796 796 794 792 788 787 786 785 783 781 779 777 775 773 772 770 768 767 765 762 759 757 754
793 794 794 794 795 796 796 795 795 794 793 793 792 793 792 793 792 793 792 791 791 789 789 787 785 783 782 780 780 778 775 774 771 769 766 764 763 762 761 758 756 753 750
786 786 787 787 788 789 788 788 788 788 788 788 789 790 790 789 789 789 788 788 788 787 786 783 782 779 777 776 776 774 772 770 766 764 761 760 759 756 755 754 752 750 748
776 777 777 778 779 780 780 781 782 782 782 781 781 781 783 784 785 784 784 784 783 782 782 780 778 775 773 772 771 770 769 766 761 759 758 755 755 751 750 748 747 745 742
770 770 771 772 771 771 773 774 775 775 775 776 776 774 774 775 776 777 778 779 779 778 777 777 774 771 769 768 766 764 764 762 759 757 756 750 749 746 744 743 741 738 735
762 762 762 762 763 764 766 768 769 770 770 770 770 771 771 770 771 771 772 770 769 770 770 770 769 766 765 763 761 759 757 756 754 753 752 746 743 740 738 737 734 731 730
755 754 754 754 756 758 759 761 765 764 763 763 765 765 764 762 763 764 765 765 764 763 764 763 763 761 759 758 757 754 752 752 749 747 747 743 740 736 734 729 727 727 726
747 746 745 745 746 747 750 753 758 759 760 759 756 757 757 757 757 757 758 758 757 756 757 756 755 754 753 752 751 749 747 745 745 743 741 741 739 738 728 723 722 722 719